Time,TemperatureF,DewpointF,PressureIn,WindDirection,WindDirectionDegrees,WindSpeedMPH,WindSpeedGustMPH,Humidity,HourlyPrecipIn,Conditions,Clouds,dailyrainin,SoftwareType,DateUTC
2013-04-04 00:07:00,32.6,17.0,30.22,NW,325,0.0,0.0,52,0.00,,,0.00,weatherlink.com 1.10,2013-04-04 04:07:00,
2013-04-04 00:22:00,30.6,16.0,30.22,NW,325,0.0,0.0,56,0.00,,,0.00,weatherlink.com 1.10,2013-04-04 04:22:00,
2013-04-04 00:37:00,29.6,16.0,30.22,NNW,346,0.0,1.0,58,0.00,,,0.00,weatherlink.com 1.10,2013-04-04 04:37:00,
2013-04-04 00:53:00,28.9,16.0,30.22,NNW,346,0.0,1.0,59,0.00,,,0.00,weatherlink.com 1.10,2013-04-04 04:53:00,
2013-04-04 01:08:00,29.2,15.0,30.22,West,278,0.0,0.0,55,0.00,,,0.00,weatherlink.com 1.10,2013-04-04 05:08:00,
2013-04-04 01:23:00,29.0,15.0,30.23,West,281,0.0,0.0,56,0.00,,,0.00,weatherlink.com 1.10,2013-04-04 05:23:00,
2013-04-04 01:38:00,28.8,15.0,30.22,NW,324,0.0,1.0,56,0.00,,,0.00,weatherlink.com 1.10,2013-04-04 05:38:00,
2013-04-04 01:53:00,29.8,14.0,30.22,North,352,0.0,1.0,52,0.00,,,0.00,weatherlink.com 1.10,2013-04-04 05:53:00,
2013-04-04 02:08:00,30.1,14.0,30.22,North,353,0.0,0.0,52,0.00,,,0.00,weatherlink.com 1.10,2013-04-04 06:08:00,
2013-04-04 02:23:00,29.3,14.0,30.22,North,352,0.0,0.0,52,0.00,,,0.00,weatherlink.com 1.10,2013-04-04 06:23:00,
2013-04-04 02:38:00,30.7,14.0,30.22,NNW,346,0.0,2.0,50,0.00,,,0.00,weatherlink.com 1.10,2013-04-04 06:38:00,
2013-04-04 02:53:00,29.8,16.0,30.21,WSW,241,0.0,1.0,57,0.00,,,0.00,weatherlink.com 1.10,2013-04-04 06:53:00,
2013-04-04 03:08:00,27.6,16.0,30.22,WSW,251,0.0,1.0,62,0.00,,,0.00,weatherlink.com 1.10,2013-04-04 07:08:00,
2013-04-04 03:23:00,27.0,15.0,30.22,WSW,238,0.0,0.0,62,0.00,,,0.00,weatherlink.com 1.10,2013-04-04 07:23:00,
2013-04-04 03:38:00,26.0,15.0,30.22,North,356,0.0,0.0,64,0.00,,,0.00,weatherlink.com 1.10,2013-04-04 07:38:00,
2013-04-04 03:53:00,25.2,15.0,30.23,North,351,0.0,0.0,65,0.00,,,0.00,weatherlink.com 1.10,2013-04-04 07:53:00,
2013-04-04 04:08:00,24.2,15.0,30.23,North,351,0.0,0.0,68,0.00,,,0.00,weatherlink.com 1.10,2013-04-04 08:08:00,
2013-04-04 04:23:00,23.3,17.0,30.24,West,281,0.0,1.0,76,0.00,,,0.00,weatherlink.com 1.10,2013-04-04 08:23:00,
2013-04-04 04:38:00,24.1,17.0,30.24,West,275,0.0,1.0,74,0.00,,,0.00,weatherlink.com 1.10,2013-04-04 08:38:00,
2013-04-04 04:53:00,25.0,17.0,30.24,WSW,250,0.0,0.0,70,0.00,,,0.00,weatherlink.com 1.10,2013-04-04 08:53:00,
2013-04-04 05:08:00,23.3,15.0,30.25,NNE,19,0.0,1.0,71,0.00,,,0.00,weatherlink.com 1.10,2013-04-04 09:08:00,
2013-04-04 05:23:00,22.7,16.0,30.25,West,259,0.0,0.0,75,0.00,,,0.00,weatherlink.com 1.10,2013-04-04 09:23:00,
2013-04-04 05:38:00,23.0,16.0,30.25,West,260,0.0,0.0,75,0.00,,,0.00,weatherlink.com 1.10,2013-04-04 09:38:00,
2013-04-04 05:53:00,22.0,16.0,30.26,WSW,237,0.0,1.0,77,0.00,,,0.00,weatherlink.com 1.10,2013-04-04 09:53:00,
2013-04-04 06:09:00,22.8,17.0,30.26,WSW,251,0.0,1.0,77,0.00,,,0.00,weatherlink.com 1.10,2013-04-04 10:09:00,
2013-04-04 06:23:00,23.1,17.0,30.26,SW,234,0.0,1.0,77,0.00,,,0.00,weatherlink.com 1.10,2013-04-04 10:23:00,
2013-04-04 07:23:00,25.1,19.0,30.28,West,275,0.0,1.0,76,0.00,,,0.00,weatherlink.com 1.10,2013-04-04 11:23:00,
2013-04-04 07:38:00,27.1,20.0,30.29,WSW,245,0.0,2.0,73,0.00,,,0.00,weatherlink.com 1.10,2013-04-04 11:38:00,
2013-04-04 07:54:00,28.5,21.0,30.28,SW,225,0.0,3.0,72,0.00,,,0.00,weatherlink.com 1.10,2013-04-04 11:54:00,
2013-04-04 08:09:00,30.2,22.0,30.28,SW,218,1.0,2.0,70,0.00,,,0.00,weatherlink.com 1.10,2013-04-04 12:09:00,
2013-04-04 08:24:00,32.4,20.0,30.28,SSW,198,1.0,6.0,60,0.00,,,0.00,weatherlink.com 1.10,2013-04-04 12:24:00,
2013-04-04 08:39:00,33.4,18.0,30.27,SSW,210,1.0,7.0,53,0.00,,,0.00,weatherlink.com 1.10,2013-04-04 12:39:00,
2013-04-04 09:09:00,34.4,18.0,30.26,SSW,210,1.0,10.0,51,0.00,,,0.00,weatherlink.com 1.10,2013-04-04 13:09:00,
2013-04-04 09:24:00,35.5,19.0,30.26,SW,214,7.0,9.0,51,0.00,,,0.00,weatherlink.com 1.10,2013-04-04 13:24:00,
2013-04-04 09:39:00,36.0,20.0,30.26,SW,225,4.0,11.0,52,0.00,,,0.00,weatherlink.com 1.10,2013-04-04 13:39:00,
2013-04-04 10:09:00,37.5,19.0,30.24,SSW,201,7.0,9.0,48,0.00,,,0.00,weatherlink.com 1.10,2013-04-04 14:09:00,
2013-04-04 10:24:00,37.9,20.0,30.23,SW,215,2.0,11.0,49,0.00,,,0.00,weatherlink.com 1.10,2013-04-04 14:24:00,
2013-04-04 10:39:00,38.9,18.0,30.22,South,190,5.0,11.0,43,0.00,,,0.00,weatherlink.com 1.10,2013-04-04 14:39:00,
2013-04-04 10:54:00,39.5,17.0,30.21,SSW,196,8.0,13.0,40,0.00,,,0.00,weatherlink.com 1.10,2013-04-04 14:54:00,
2013-04-04 11:09:00,40.5,17.0,30.20,South,187,7.0,10.0,38,0.00,,,0.00,weatherlink.com 1.10,2013-04-04 15:09:00,
2013-04-04 11:24:00,41.1,17.0,30.19,SSW,211,8.0,13.0,38,0.00,,,0.00,weatherlink.com 1.10,2013-04-04 15:24:00,
2013-04-04 11:39:00,41.5,16.0,30.18,SSW,202,7.0,15.0,36,0.00,,,0.00,weatherlink.com 1.10,2013-04-04 15:39:00,
2013-04-04 11:54:00,42.4,18.0,30.16,South,184,5.0,13.0,37,0.00,,,0.00,weatherlink.com 1.10,2013-04-04 15:54:00,
2013-04-04 12:09:00,43.3,17.0,30.16,South,190,6.0,12.0,35,0.00,,,0.00,weatherlink.com 1.10,2013-04-04 16:09:00,
2013-04-04 12:24:00,44.2,17.0,30.15,South,190,7.0,11.0,34,0.00,,,0.00,weatherlink.com 1.10,2013-04-04 16:24:00,
2013-04-04 12:39:00,44.4,18.0,30.14,South,184,5.0,16.0,35,0.00,,,0.00,weatherlink.com 1.10,2013-04-04 16:39:00,
2013-04-04 12:54:00,44.9,17.0,30.13,South,176,10.0,15.0,33,0.00,,,0.00,weatherlink.com 1.10,2013-04-04 16:54:00,
2013-04-04 13:09:00,45.9,19.0,30.11,South,187,13.0,18.0,34,0.00,,,0.00,weatherlink.com 1.10,2013-04-04 17:09:00,
2013-04-04 13:24:00,46.2,19.0,30.10,SE,138,7.0,18.0,34,0.00,,,0.00,weatherlink.com 1.10,2013-04-04 17:24:00,
2013-04-04 13:39:00,46.9,20.0,30.09,SW,222,5.0,17.0,34,0.00,,,0.00,weatherlink.com 1.10,2013-04-04 17:39:00,
2013-04-04 13:54:00,47.4,20.0,30.07,SSW,206,12.0,19.0,34,0.00,,,0.00,weatherlink.com 1.10,2013-04-04 17:54:00,
2013-04-04 14:09:00,48.0,20.0,30.06,South,176,7.0,21.0,33,0.00,,,0.00,weatherlink.com 1.10,2013-04-04 18:09:00,
2013-04-04 14:24:00,48.1,21.0,30.05,South,190,10.0,23.0,35,0.00,,,0.00,weatherlink.com 1.10,2013-04-04 18:24:00,
2013-04-04 14:40:00,48.8,21.0,30.04,SE,146,10.0,22.0,34,0.00,,,0.00,weatherlink.com 1.10,2013-04-04 18:40:00,
2013-04-04 14:55:00,49.2,22.0,30.03,South,182,17.0,22.0,34,0.00,,,0.00,weatherlink.com 1.10,2013-04-04 18:55:00,
2013-04-04 15:10:00,49.2,22.0,30.02,SSW,206,6.0,21.0,35,0.00,,,0.00,weatherlink.com 1.10,2013-04-04 19:10:00,
2013-04-04 15:25:00,49.9,24.0,30.01,SE,136,10.0,23.0,36,0.00,,,0.00,weatherlink.com 1.10,2013-04-04 19:25:00,
2013-04-04 15:40:00,50.1,25.0,29.99,South,188,3.0,23.0,37,0.00,,,0.00,weatherlink.com 1.10,2013-04-04 19:40:00,
2013-04-04 16:01:00,51.0,24.0,29.98,SE,133,8.0,19.0,35,0.00,,,0.00,weatherlink.com 1.10,2013-04-04 20:01:00,
2013-04-04 16:10:00,51.3,24.0,29.97,SSW,210,10.0,18.0,34,0.00,,,0.00,weatherlink.com 1.10,2013-04-04 20:10:00,
2013-04-04 16:25:00,51.9,25.0,29.96,SSW,206,14.0,19.0,35,0.00,,,0.00,weatherlink.com 1.10,2013-04-04 20:25:00,
2013-04-04 16:40:00,52.4,25.0,29.95,South,190,8.0,21.0,34,0.00,,,0.00,weatherlink.com 1.10,2013-04-04 20:40:00,
2013-04-04 16:55:00,52.4,25.0,29.94,South,184,5.0,20.0,34,0.00,,,0.00,weatherlink.com 1.10,2013-04-04 20:55:00,
2013-04-04 17:10:00,52.2,24.0,29.94,South,182,16.0,19.0,34,0.00,,,0.00,weatherlink.com 1.10,2013-04-04 21:10:00,
2013-04-04 17:25:00,52.5,24.0,29.94,SW,218,18.0,22.0,33,0.00,,,0.00,weatherlink.com 1.10,2013-04-04 21:25:00,
2013-04-04 17:40:00,52.9,24.0,29.94,SW,215,4.0,18.0,32,0.00,,,0.00,weatherlink.com 1.10,2013-04-04 21:40:00,
2013-04-04 17:55:00,52.8,23.0,29.93,SSE,151,10.0,23.0,31,0.00,,,0.00,weatherlink.com 1.10,2013-04-04 21:55:00,
2013-04-04 18:10:00,52.2,24.0,29.94,SSW,210,6.0,22.0,33,0.00,,,0.00,weatherlink.com 1.10,2013-04-04 22:10:00,
2013-04-04 18:25:00,51.7,23.0,29.94,SSW,205,7.0,20.0,32,0.00,,,0.00,weatherlink.com 1.10,2013-04-04 22:25:00,
2013-04-04 18:40:00,51.1,23.0,29.95,SSW,207,4.0,20.0,33,0.00,,,0.00,weatherlink.com 1.10,2013-04-04 22:40:00,
2013-04-04 18:55:00,50.2,23.0,29.95,SW,215,2.0,13.0,34,0.00,,,0.00,weatherlink.com 1.10,2013-04-04 22:55:00,
2013-04-04 19:10:00,49.2,22.0,29.96,SW,227,0.0,14.0,35,0.00,,,0.00,weatherlink.com 1.10,2013-04-04 23:10:00,
2013-04-04 19:25:00,48.9,22.0,29.95,SSW,205,6.0,17.0,35,0.00,,,0.00,weatherlink.com 1.10,2013-04-04 23:25:00,
2013-04-04 19:40:00,48.6,21.0,29.95,SSW,203,2.0,15.0,34,0.00,,,0.00,weatherlink.com 1.10,2013-04-04 23:40:00,
2013-04-04 19:56:00,48.5,22.0,29.96,SW,214,3.0,14.0,35,0.00,,,0.00,weatherlink.com 1.10,2013-04-04 23:56:00,
2013-04-04 20:11:00,48.4,22.0,29.96,SW,221,8.0,13.0,35,0.00,,,0.00,weatherlink.com 1.10,2013-04-05 00:11:00,
2013-04-04 20:27:00,47.3,23.0,29.97,SSW,212,4.0,14.0,39,0.00,,,0.00,weatherlink.com 1.10,2013-04-05 00:27:00,
2013-04-04 20:41:00,46.8,23.0,29.97,SSW,206,4.0,10.0,40,0.00,,,0.00,weatherlink.com 1.10,2013-04-05 00:41:00,
2013-04-04 20:56:00,46.4,24.0,29.97,SW,218,1.0,9.0,41,0.00,,,0.00,weatherlink.com 1.10,2013-04-05 00:56:00,
2013-04-04 21:11:00,45.3,23.0,29.97,SW,225,0.0,9.0,42,0.00,,,0.00,weatherlink.com 1.10,2013-04-05 01:11:00,
2013-04-04 21:26:00,44.6,23.0,29.97,SW,222,0.0,5.0,43,0.00,,,0.00,weatherlink.com 1.10,2013-04-05 01:26:00,
2013-04-04 21:56:00,44.3,23.0,29.97,SW,225,0.0,3.0,43,0.00,,,0.00,weatherlink.com 1.10,2013-04-05 01:56:00,
2013-04-04 22:41:00,42.0,22.0,29.94,NE,44,0.0,1.0,46,0.00,,,0.00,weatherlink.com 1.10,2013-04-05 02:41:00,
2013-04-04 22:56:00,41.4,22.0,29.93,North,2,0.0,1.0,47,0.00,,,0.00,weatherlink.com 1.10,2013-04-05 02:56:00,
2013-04-04 23:11:00,40.5,22.0,29.92,NNW,338,0.0,1.0,48,0.00,,,0.00,weatherlink.com 1.10,2013-04-05 03:11:00,
2013-04-04 23:26:00,40.3,22.0,29.92,NNW,338,0.0,0.0,48,0.00,,,0.00,weatherlink.com 1.10,2013-04-05 03:26:00,
2013-04-04 23:56:00,39.3,22.0,29.90,SW,220,0.0,4.0,51,0.00,,,0.00,weatherlink.com 1.10,2013-04-05 03:56:00,